[[{"header":{"parameterUnit":"m.s-1","parameterCategory":2,"la1":30.2991,"la2":30.254,"lo1":-89.0895,"lo2":-89.0444,"dy":0.0017,"dx":0.0017,"nx":28,"ny":28,"refTime":"2023-08-26T09:00:00:Z","depth":"0","parameterNumber":2,"parameterNumberName":"U-component_of_CURRENTS"},"data":[0,0,0,0,0,0,0,0,0,0,0,0,0,0,0,0,0,0,0,0,0,0,0,0,0,0,0,0,0,0,0,0,0,0,0,0,0,0,0,0,0,0,0,0,0,0,0,0,0,0,0,0,0,0,0,0,0,0,-0.292,-0.292,0,-0.2912,-0.2912,-0.2911,-0.3038,-0.3042,-0.3046,-0.305,-0.3122,-0.3121,-0.3119,0,0,0,0,0,0,0,0,0,0,0,0,0,-0.2638,-0.2644,-0.292,-0.292,-0.2921,-0.2912,-0.2912,-0.2911,-0.3038,-0.3043,-0.3047,-0.3052,-0.3123,-0.3121,-0.3119,0,0,0,0,0,0,0,0,0,0,0,0,0,-0.2704,-0.2647,-0.292,-0.2987,-0.2994,-0.2913,-0.2912,-0.2911,-0.3037,-0.3043,-0.3049,-0.3054,-0.3124,-0.3121,-0.3118,-0.2982,0,0,-0.311,-0.3109,0,0,0,0,0,0,0,0,-0.27,-0.2713,-0.2977,-0.2983,-0.299,-0.2988,-0.2839,-0.2941,-0.3035,-0.3014,-0.305,-0.3057,-0.3084,-0.3085,-0.3061,-0.2985,-0.2988,-0.311,-0.3108,-0.3107,-0.3106,0,0,0,0,0,0,0,-0.2696,-0.2712,-0.2911,-0.2977,-0.2985,-0.2879,-0.2898,-0.2856,-0.3012,-0.3016,-0.3027,-0.3034,-0.3088,-0.3063,-0.3064,-0.2989,-0.311,-0.3108,-0.3106,-0.3105,-0.286,-0.2856,0,0,0,0,0,0,-0.2725,-0.271,-0.2911,-0.2911,-0.2863,-0.2882,-0.2902,-0.2977,-0.3012,-0.3024,-0.3029,-0.304,-0.3064,-0.3067,-0.3067,-0.2954,-0.3107,-0.3105,-0.3103,-0.2865,-0.2859,-0.2854,0,0,0,0,0,0,-0.272,-0.2745,-0.2912,-0.281,-0.2825,-0.2884,-0.2964,-0.2974,-0.2967,-0.3021,-0.3035,-0.3015,-0.3069,-0.3071,-0.3023,-0.2958,-0.3103,-0.3101,-0.2871,-0.2863,-0.2857,-0.27,0,0,0,0,0,0,-0.2713,-0.2745,-0.2762,-0.2815,-0.2833,-0.2833,-0.2959,-0.297,-0.2964,-0.2978,-0.3012,-0.3025,-0.3074,-0.3026,-0.302,-0.2957,-0.3099,-0.2877,-0.2868,-0.2859,-0.2711,-0.2688,-0.2668,0,0,0,0,0,-0.2704,-0.2659,-0.2765,-0.2786,-0.2874,-0.2829,-0.2823,-0.2878,-0.2957,-0.2903,-0.2951,-0.3025,-0.2965,-0.3018,-0.3013,-0.2948,-0.2882,-0.287,-0.286,-0.2721,-0.2692,-0.2669,0,0,0,0,0,0,-0.2514,-0.2672,-0.2787,-0.2796,-0.2822,-0.2853,-0.2785,-0.2854,-0.2842,-0.2862,-0.2951,-0.296,-0.2887,-0.292,-0.2978,-0.2845,-0.2937,-0.2924,-0.2833,-0.2806,-0.2785,-0.2849,-0.3097,0,0,0,0,0,-0.2499,-0.254,-0.2654,-0.2657,-0.2665,-0.2736,-0.2717,-0.2767,-0.2783,-0.2787,-0.2822,-0.2842,-0.2821,-0.2825,-0.2794,-0.2715,-0.276,-0.2669,-0.2647,-0.263,-0.2673,-0.2659,-0.2642,-0.2818,-0.2818,-0.2818,0,0,-0.243,-0.2516,-0.2543,-0.262,-0.2646,-0.2642,-0.2735,-0.2687,-0.2694,-0.2787,-0.2755,-0.2746,-0.2775,-0.2694,-0.2666,-0.273,-0.2583,-0.2616,-0.2601,-0.2655,-0.2646,-0.263,-0.2616,-0.281,-0.2812,-0.2813,0,0,-0.23,-0.239,-0.2397,-0.2416,-0.2461,-0.2497,-0.2492,-0.2526,-0.2544,-0.2504,-0.2575,-0.2541,-0.2507,-0.2526,-0.2536,-0.2368,-0.2451,-0.234,-0.2309,-0.2292,-0.228,-0.227,-0.2238,-0.2227,-0.2353,-0.2353,-0.2353,0,-0.2228,-0.2295,-0.236,-0.2363,-0.2377,-0.2449,-0.2441,-0.2431,-0.2446,-0.2457,-0.2476,-0.2438,-0.2439,-0.2409,-0.2358,-0.2327,-0.2334,-0.2411,-0.227,-0.2262,-0.2254,-0.2226,-0.2216,-0.2344,-0.2345,-0.2346,-0.2347,0,-0.2139,-0.2185,-0.2144,-0.2249,-0.2234,-0.2197,-0.2256,-0.2229,-0.2266,-0.2302,-0.2249,-0.2233,-0.2252,-0.22,-0.2238,-0.2173,-0.2194,-0.2227,-0.2352,-0.2228,-0.2203,-0.2196,-0.2331,-0.2335,-0.2337,-0.2339,0,0,-0.2055,-0.21,-0.2102,-0.2151,-0.2184,-0.2172,-0.2144,-0.2167,-0.2193,-0.2149,-0.2172,-0.2089,-0.2116,-0.2128,-0.2135,-0.2118,-0.2023,-0.2155,-0.2159,-0.2154,-0.1974,-0.1884,-0.1868,-0.2037,-0.2036,-0.2035,-0.1955,0,-0.2005,-0.2005,-0.2037,-0.2031,-0.2044,-0.2089,-0.2076,-0.2092,-0.2104,-0.2109,-0.2096,-0.2086,-0.208,-0.2082,-0.2053,-0.2052,-0.2007,-0.2042,-0.2073,-0.2074,-0.2035,-0.1858,-0.1767,-0.1681,-0.1949,-0.1948,-0.1947,0,-0.1954,-0.1974,-0.1964,-0.2011,-0.202,-0.2013,-0.2048,-0.2043,-0.206,-0.207,-0.2065,-0.2077,-0.2046,-0.205,-0.1995,-0.2021,-0.1987,-0.197,-0.1967,-0.1958,-0.1971,-0.1857,-0.1658,-0.1653,-0.1937,-0.1938,-0.1938,0,-0.191,-0.1931,-0.1931,-0.1942,-0.1983,-0.1986,-0.2005,-0.203,-0.2037,-0.2057,-0.2064,-0.2049,-0.2038,-0.2004,-0.196,-0.1984,-0.1895,-0.1928,-0.1802,-0.1796,-0.1768,-0.176,-0.1608,-0.1866,-0.1866,-0.1866,-0.1866,0,-0.1869,-0.1872,-0.1914,-0.1918,-0.192,-0.1963,-0.1966,-0.199,-0.2018,-0.202,-0.2046,-0.2032,-0.2028,-0.1983,-0.1948,-0.1836,-0.1878,-0.1773,-0.176,-0.1697,-0.1684,-0.1726,-0.177,-0.1863,-0.1864,-0.1864,-0.1865,0,-0.1817,-0.1845,-0.1851,-0.1891,-0.1898,-0.1902,-0.1935,-0.1946,-0.1982,-0.1986,-0.1991,-0.2007,-0.1943,-0.1908,-0.1848,-0.18,-0.1682,-0.167,-0.1583,-0.1559,-0.144,-0.148,-0.1387,-0.1345,-0.1523,-0.152,-0.1518,0,-0.1786,-0.1782,-0.1815,-0.1816,-0.183,-0.1844,-0.1855,-0.1909,-0.1924,-0.1954,-0.195,-0.1909,-0.1853,-0.1722,-0.1628,-0.1517,-0.1546,-0.1381,-0.14,-0.1387,-0.1425,-0.1474,-0.1451,-0.1278,-0.1274,-0.1271,-0.1268,0,-0.1721,-0.1732,-0.174,-0.1741,-0.1751,-0.1764,-0.1789,-0.18,-0.1861,-0.186,-0.1836,-0.1795,-0.1669,-0.1511,-0.1377,-0.1308,-0.1349,-0.1305,-0.132,-0.1229,-0.1251,-0.122,-0.1382,-0.1238,-0.1241,-0.1243,-0.1245,-0.1246,-0.1659,-0.1646,-0.1651,-0.1644,-0.1662,-0.1671,-0.1647,-0.1683,-0.1678,-0.1628,-0.1673,-0.151,-0.1434,-0.122,-0.1153,-0.1012,-0.1101,-0.0985,-0.1034,-0.1086,-0.1036,-0.1112,-0.0941,-0.0942,-0.0943,-0.0944,-0.0945,0,-0.1565,-0.1556,-0.1551,-0.1541,-0.1522,-0.1566,-0.1582,-0.1533,-0.1484,-0.1388,-0.1316,-0.1108,-0.1016,-0.0937,-0.0837,-0.0778,-0.0787,-0.0768,-0.0838,-0.0827,-0.0899,-0.0878,-0.065,-0.065,-0.0651,-0.0651,-0.0651,-0.0651,-0.1512,-0.1467,-0.1463,-0.1392,-0.1389,-0.134,-0.1328,-0.1243,-0.1139,-0.0887,-0.0668,-0.0566,-0.0616,-0.0773,-0.0745,-0.07,-0.0719,-0.0677,-0.0731,-0.0815,-0.0841,-0.0866,-0.0852,-0.0624,-0.0624,-0.0614,-0.0614,-0.0614]},{"header":{"parameterUnit":"m.s-1","parameterCategory":2,"la1":30.2991,"la2":30.254,"lo1":-89.0895,"lo2":-89.0444,"dy":0.0017,"dx":0.0017,"nx":28,"ny":28,"refTime":"2023-08-26T09:00:00:Z","depth":"0","parameterNumber":3,"parameterNumberName":"V-component_of_CURRENTS"},"data":[0,0,0,0,0,0,0,0,0,0,0,0,0,0,0,0,0,0,0,0,0,0,0,0,0,0,0,0,0,0,0,0,0,0,0,0,0,0,0,0,0,0,0,0,0,0,0,0,0,0,0,0,0,0,0,0,0,0,-0.0595,-0.0594,0,-0.0478,-0.0476,-0.0475,-0.0401,-0.0401,-0.04,-0.04,-0.0127,-0.0121,-0.0114,0,0,0,0,0,0,0,0,0,0,0,0,0,-0.0636,-0.0636,-0.0595,-0.0593,-0.0592,-0.0478,-0.0476,-0.0475,-0.0401,-0.0401,-0.04,-0.04,-0.013,-0.0122,-0.0113,0,0,0,0,0,0,0,0,0,0,0,0,0,-0.0578,-0.0637,-0.0595,-0.0542,-0.0536,-0.0478,-0.0476,-0.0474,-0.0401,-0.0401,-0.04,-0.0399,-0.0132,-0.0122,-0.0112,-0.006,0,0,-0.0081,-0.0076,0,0,0,0,0,0,0,0,-0.0582,-0.0577,-0.0551,-0.0546,-0.0539,-0.0454,-0.0391,-0.0328,-0.0401,-0.0452,-0.04,-0.0399,-0.0223,-0.0205,-0.0186,-0.0047,-0.0035,-0.008,-0.0073,-0.0069,-0.0066,0,0,0,0,0,0,0,-0.0586,-0.0581,-0.0548,-0.055,-0.0542,-0.0483,-0.0476,-0.0379,-0.0339,-0.0447,-0.0442,-0.043,-0.0218,-0.0196,-0.0178,-0.0031,-0.008,-0.0071,-0.0064,-0.006,0.0171,0.0171,0,0,0,0,0,0,-0.0609,-0.0586,-0.0552,-0.0544,-0.056,-0.0484,-0.0475,-0.0481,-0.0343,-0.0323,-0.043,-0.0427,-0.0214,-0.0191,-0.0168,-0.0105,-0.0069,-0.0059,-0.0053,0.0171,0.0171,0.0171,0,0,0,0,0,0,-0.061,-0.0608,-0.0556,-0.0561,-0.0551,-0.0484,-0.0491,-0.0479,-0.0457,-0.0332,-0.0308,-0.0421,-0.0213,-0.0183,-0.0098,-0.0093,-0.0055,-0.0045,0.0171,0.0171,0.0171,0.0028,0,0,0,0,0,0,-0.0613,-0.061,-0.0619,-0.0564,-0.0551,-0.0527,-0.0492,-0.0477,-0.0451,-0.0445,-0.0316,-0.029,-0.021,-0.0115,-0.0088,-0.0078,-0.0037,0.0171,0.0171,0.0171,0.0033,0.0023,0.0014,0,0,0,0,0,-0.0615,-0.062,-0.0621,-0.0616,-0.0569,-0.0527,-0.0516,-0.0465,-0.0451,-0.0443,-0.0368,-0.0294,-0.0096,-0.0107,-0.0076,-0.0062,0.0171,0.0171,0.0171,0.0037,0.0025,0.0015,0,0,0,0,0,0,-0.0631,-0.0612,-0.0611,-0.0609,-0.0579,-0.0515,-0.0496,-0.0473,-0.0411,-0.0399,-0.0294,-0.0263,-0.0194,-0.0106,-0.0121,0.0004,0.0051,0.0056,-0.0062,-0.0072,-0.0081,-0.0085,-0.0028,0,0,0,0,0,-0.0647,-0.0653,-0.0621,-0.0619,-0.0608,-0.056,-0.0537,-0.0509,-0.0448,-0.0421,-0.034,-0.0246,-0.0169,-0.0107,-0.0028,0.0053,0.0114,0.0082,0.0073,0.0065,0.0083,0.0142,0.0139,0.017,0.017,0.017,0,0,-0.0651,-0.0641,-0.0643,-0.0624,-0.0595,-0.0578,-0.0544,-0.0513,-0.0493,-0.0396,-0.034,-0.0279,-0.0161,-0.0093,-0.0049,-0.0013,0.0084,0.0064,0.0056,0.008,0.0141,0.0138,0.0135,0.017,0.017,0.017,0,0,-0.0656,-0.0658,-0.0665,-0.0649,-0.0618,-0.0586,-0.0586,-0.0536,-0.0508,-0.0454,-0.0394,-0.0337,-0.02,-0.0132,-0.0075,-0.0077,0.0017,-0.0047,-0.007,-0.0016,-0.0018,-0.0019,0.003,0.0034,-0.0032,-0.0032,-0.0032,0,-0.0665,-0.0676,-0.0656,-0.0656,-0.0642,-0.0599,-0.0596,-0.0558,-0.0488,-0.0463,-0.0447,-0.0301,-0.0217,-0.0133,-0.0141,-0.0097,-0.0052,-0.0047,-0.003,-0.003,-0.0029,0.0022,0.0029,-0.0039,-0.0038,-0.0037,-0.0037,0,-0.0677,-0.0685,-0.0682,-0.0678,-0.0658,-0.0646,-0.0603,-0.0579,-0.0546,-0.0506,-0.0441,-0.0354,-0.0259,-0.0237,-0.0182,-0.013,-0.01,-0.0072,-0.0013,-0.0041,0.0015,0.0024,-0.0049,-0.0046,-0.0044,-0.0043,0,0,-0.07,-0.0698,-0.0698,-0.0707,-0.0675,-0.0659,-0.0627,-0.0587,-0.0564,-0.0507,-0.047,-0.0375,-0.0341,-0.0274,-0.0213,-0.0161,-0.0137,-0.0115,-0.0109,-0.0083,-0.0019,0.0011,0.0025,-0.0114,-0.0113,-0.0111,0.0006,0,-0.0719,-0.074,-0.0722,-0.0726,-0.0733,-0.0691,-0.0664,-0.0619,-0.0571,-0.0523,-0.0445,-0.0386,-0.0347,-0.0316,-0.0262,-0.016,-0.0114,-0.0171,0.0023,0.0029,0.0045,0.0037,0.0068,0.0177,0.0016,0.0018,0.0019,0,-0.0741,-0.0754,-0.0775,-0.0767,-0.0764,-0.0753,-0.0712,-0.0683,-0.0603,-0.0563,-0.0497,-0.0433,-0.0343,-0.0321,-0.0162,-0.0201,-0.012,-0.0051,-0.0044,0.005,0.0078,0.0189,0.0201,0.0315,0.0035,0.0033,0.0032,0,-0.0779,-0.0786,-0.081,-0.081,-0.079,-0.0785,-0.0766,-0.0701,-0.067,-0.0593,-0.0557,-0.0449,-0.0381,-0.0274,-0.013,-0.0143,0.0041,0.0045,0.0147,0.015,0.0253,0.0263,0.0392,0.0145,0.0145,0.0145,0.0144,0,-0.0815,-0.0829,-0.0835,-0.085,-0.0863,-0.0832,-0.0821,-0.0783,-0.0717,-0.067,-0.0587,-0.0519,-0.0366,-0.0242,-0.013,0.0048,0.0047,0.0153,0.0188,0.0202,0.0205,0.0374,0.0409,0.0149,0.0148,0.0147,0.0146,0,-0.0852,-0.0859,-0.0886,-0.0886,-0.0886,-0.0898,-0.0867,-0.0851,-0.0786,-0.0723,-0.07,-0.0552,-0.0384,-0.0232,-0.0032,0.0061,0.0294,0.0271,0.0273,0.0306,0.0491,0.0516,0.0704,0.0784,0.0403,0.0404,0.0405,0,-0.0873,-0.0896,-0.0921,-0.094,-0.0945,-0.0952,-0.0949,-0.0895,-0.0866,-0.0732,-0.0699,-0.053,-0.0379,-0.0083,0.0105,0.0312,0.0384,0.0443,0.0422,0.0519,0.0574,0.0586,0.0641,0.0498,0.05,0.0501,0.0502,0,-0.0909,-0.0921,-0.0945,-0.0988,-0.1006,-0.1016,-0.1004,-0.0983,-0.0897,-0.0808,-0.0652,-0.0521,-0.0238,0.0032,0.0277,0.039,0.053,0.0481,0.0597,0.0676,0.0689,0.0776,0.0392,0.0517,0.0515,0.0514,0.0513,0.0513,-0.0926,-0.0957,-0.099,-0.1028,-0.1053,-0.106,-0.1037,-0.0967,-0.0883,-0.0655,-0.0578,-0.0252,-0.0018,0.0349,0.0472,0.0715,0.0674,0.0786,0.0813,0.0821,0.0888,0.0526,0.0675,0.0674,0.0674,0.0674,0.0673,0,-0.0937,-0.0975,-0.1021,-0.1062,-0.109,-0.1092,-0.1051,-0.0949,-0.079,-0.0521,-0.029,0.0164,0.0423,0.0655,0.0912,0.1046,0.1074,0.1101,0.1138,0.1183,0.089,0.0883,0.1066,0.1066,0.1066,0.1066,0.1066,0.1065,-0.0943,-0.0991,-0.102,-0.1076,-0.1101,-0.1061,-0.1019,-0.0806,-0.0572,-0.0086,0.0316,0.059,0.082,0.1075,0.1313,0.1341,0.1472,0.1442,0.1519,0.1315,0.1288,0.1262,0.1266,0.1526,0.1526,0.1816,0.1819,0.1821]}],[{"header":{"parameterUnit":"m.s-1","parameterCategory":2,"la1":30.2991,"la2":30.254,"lo1":-89.0895,"lo2":-89.0444,"dy":0.0017,"dx":0.0017,"nx":28,"ny":28,"refTime":"2023-08-26T09:00:00:Z","depth":"2","parameterNumber":2,"parameterNumberName":"U-component_of_CURRENTS"},"data":[0,0,0,0,0,0,0,0,0,0,0,0,0,0,0,0,0,0,0,0,0,0,0,0,0,0,0,0,0,0,0,0,0,0,0,0,0,0,0,0,0,0,0,0,0,0,0,0,0,0,0,0,0,0,0,0,0,0,-0.2082,-0.2083,0,-0.2126,-0.2126,-0.2127,-0.2156,-0.2156,-0.2156,-0.2156,-0.2211,-0.2212,-0.2214,0,0,0,0,0,0,0,0,0,0,0,0,0,-0.207,-0.207,-0.2082,-0.2083,-0.2083,-0.2126,-0.2126,-0.2127,-0.2156,-0.2156,-0.2156,-0.2157,-0.2211,-0.2212,-0.2214,0,0,0,0,0,0,0,0,0,0,0,0,0,-0.2091,-0.207,-0.2082,-0.2102,-0.2104,-0.2126,-0.2126,-0.2127,-0.2156,-0.2156,-0.2156,-0.2157,-0.221,-0.2212,-0.2214,-0.2223,0,0,-0.222,-0.2221,0,0,0,0,0,0,0,0,-0.209,-0.2092,-0.2099,-0.2101,-0.2103,-0.2135,-0.2142,-0.2159,-0.2156,-0.2137,-0.2156,-0.2157,-0.2186,-0.219,-0.2199,-0.2225,-0.2227,-0.222,-0.2222,-0.2223,-0.2223,0,0,0,0,0,0,0,-0.2088,-0.209,-0.21,-0.2099,-0.2102,-0.2125,-0.2128,-0.2146,-0.2161,-0.2139,-0.2141,-0.2145,-0.2188,-0.2197,-0.22,-0.2228,-0.222,-0.2222,-0.2223,-0.2224,-0.2196,-0.2195,0,0,0,0,0,0,-0.2079,-0.2088,-0.2099,-0.2101,-0.2096,-0.2125,-0.2128,-0.2125,-0.216,-0.2166,-0.2144,-0.2146,-0.2193,-0.2198,-0.2202,-0.2188,-0.2222,-0.2224,-0.2226,-0.2198,-0.2196,-0.2194,0,0,0,0,0,0,-0.2078,-0.2079,-0.2097,-0.2096,-0.21,-0.2124,-0.2121,-0.2126,-0.2143,-0.2164,-0.217,-0.2157,-0.2194,-0.22,-0.2194,-0.2192,-0.2225,-0.2227,-0.2201,-0.2198,-0.2195,-0.2177,0,0,0,0,0,0,-0.2078,-0.2078,-0.2079,-0.2095,-0.2099,-0.2111,-0.2121,-0.2127,-0.2144,-0.2147,-0.2177,-0.2182,-0.2194,-0.2191,-0.2196,-0.2195,-0.2229,-0.2203,-0.2199,-0.2196,-0.218,-0.2173,-0.2168,0,0,0,0,0,-0.2077,-0.2075,-0.2078,-0.208,-0.2097,-0.2111,-0.2115,-0.2134,-0.2144,-0.2151,-0.2149,-0.2181,-0.2171,-0.2191,-0.2198,-0.2197,-0.2205,-0.22,-0.2196,-0.2182,-0.2175,-0.2168,0,0,0,0,0,0,-0.2069,-0.2078,-0.2082,-0.2083,-0.2096,-0.2115,-0.2123,-0.2137,-0.2145,-0.2145,-0.2164,-0.2168,-0.2161,-0.2171,-0.2192,-0.2171,-0.2191,-0.2188,-0.2178,-0.2171,-0.2165,-0.2173,-0.223,0,0,0,0,0,-0.2066,-0.2065,-0.208,-0.2078,-0.2086,-0.2106,-0.2116,-0.2128,-0.2135,-0.214,-0.2154,-0.2154,-0.2147,-0.2153,-0.2151,-0.2151,-0.215,-0.2147,-0.2142,-0.2137,-0.2142,-0.2127,-0.2122,-0.218,-0.218,-0.218,0,0,-0.2057,-0.2065,-0.2062,-0.2076,-0.2088,-0.2092,-0.2113,-0.2126,-0.2125,-0.2144,-0.2142,-0.2141,-0.2139,-0.2126,-0.2124,-0.2138,-0.2113,-0.2131,-0.2128,-0.2136,-0.2123,-0.2117,-0.2113,-0.2177,-0.2177,-0.2178,0,0,-0.2036,-0.2051,-0.2041,-0.2056,-0.2073,-0.2087,-0.2091,-0.211,-0.2116,-0.211,-0.2112,-0.2102,-0.2106,-0.2098,-0.2094,-0.2055,-0.2081,-0.2055,-0.2044,-0.2029,-0.2025,-0.2022,-0.1992,-0.1987,-0.2056,-0.2056,-0.2056,0,-0.2022,-0.2019,-0.2042,-0.2042,-0.2052,-0.2082,-0.2079,-0.2088,-0.2099,-0.21,-0.2103,-0.2086,-0.2089,-0.2069,-0.2048,-0.2047,-0.2038,-0.2078,-0.2025,-0.2022,-0.2019,-0.199,-0.1984,-0.2055,-0.2055,-0.2055,-0.2055,0,-0.1993,-0.2,-0.1999,-0.2006,-0.202,-0.2026,-0.2044,-0.2052,-0.2063,-0.2069,-0.2056,-0.2048,-0.2042,-0.2033,-0.2032,-0.2009,-0.2008,-0.202,-0.2053,-0.2012,-0.1983,-0.1977,-0.2053,-0.2053,-0.2054,-0.2054,0,0,-0.1935,-0.1969,-0.197,-0.198,-0.2006,-0.2016,-0.2015,-0.2025,-0.2033,-0.2029,-0.2029,-0.2001,-0.2011,-0.2005,-0.2004,-0.1989,-0.195,-0.1997,-0.1997,-0.1985,-0.1906,-0.182,-0.1805,-0.1961,-0.1961,-0.196,-0.1888,0,-0.1903,-0.1906,-0.1929,-0.1934,-0.1943,-0.1977,-0.1979,-0.1994,-0.2007,-0.2014,-0.2006,-0.2002,-0.1996,-0.1998,-0.1979,-0.1969,-0.1937,-0.1968,-0.1933,-0.1931,-0.1874,-0.1796,-0.1678,-0.1597,-0.1883,-0.1882,-0.1881,0,-0.1864,-0.188,-0.1879,-0.192,-0.1926,-0.193,-0.1959,-0.1964,-0.1983,-0.1994,-0.1992,-0.1999,-0.1978,-0.198,-0.1931,-0.1954,-0.1923,-0.1906,-0.1903,-0.183,-0.1833,-0.1684,-0.1576,-0.1871,-0.1872,-0.1873,-0.1873,0,-0.1824,-0.1847,-0.185,-0.1862,-0.1903,-0.1908,-0.1928,-0.1954,-0.1961,-0.1984,-0.1991,-0.1981,-0.1971,-0.1942,-0.1901,-0.1922,-0.1842,-0.1869,-0.1751,-0.1745,-0.164,-0.1625,-0.1816,-0.1816,-0.1816,-0.1816,-0.1816,0,-0.1789,-0.1794,-0.1835,-0.184,-0.1846,-0.1888,-0.1894,-0.1917,-0.1946,-0.1946,-0.1977,-0.1964,-0.1962,-0.1921,-0.1891,-0.1787,-0.1827,-0.1727,-0.1713,-0.1624,-0.161,-0.1856,-0.1862,-0.1813,-0.1814,-0.1815,-0.1815,0,-0.1741,-0.1769,-0.1776,-0.1817,-0.1826,-0.1831,-0.1866,-0.1875,-0.1913,-0.1914,-0.192,-0.1938,-0.188,-0.1851,-0.1796,-0.1752,-0.1683,-0.1633,-0.1518,-0.1491,-0.1602,-0.1608,-0.1501,-0.1498,-0.1494,-0.1492,-0.1489,0,-0.1714,-0.1712,-0.1744,-0.1746,-0.1761,-0.1778,-0.1788,-0.1841,-0.1853,-0.1882,-0.1875,-0.184,-0.1784,-0.1667,-0.1582,-0.1482,-0.1562,-0.1327,-0.1339,-0.1568,-0.1566,-0.1577,-0.1586,-0.1187,-0.1183,-0.1179,-0.1176,0,-0.1655,-0.1666,-0.1674,-0.1676,-0.1686,-0.1699,-0.1722,-0.1728,-0.1783,-0.1779,-0.1753,-0.1713,-0.1601,-0.1438,-0.1318,-0.1255,-0.134,-0.1246,-0.1502,-0.1286,-0.1266,-0.1267,-0.1288,-0.1143,-0.1146,-0.1149,-0.115,-0.1152,-0.1599,-0.1586,-0.1591,-0.1584,-0.1601,-0.1604,-0.1565,-0.1598,-0.1585,-0.1536,-0.1591,-0.1471,-0.1412,-0.1151,-0.1057,-0.0983,-0.1084,-0.1046,-0.106,-0.1078,-0.1055,-0.1031,-0.0858,-0.0859,-0.0861,-0.0862,-0.0863,0,-0.1513,-0.1503,-0.1497,-0.1482,-0.1457,-0.1499,-0.1497,-0.143,-0.1359,-0.1347,-0.1284,-0.1107,-0.0976,-0.0922,-0.0752,-0.0707,-0.0729,-0.0677,-0.0722,-0.0754,-0.0782,-0.0748,-0.0468,-0.0467,-0.0466,-0.0465,0,0,-0.1464,-0.142,-0.1413,-0.1332,-0.1319,-0.1221,-0.1188,-0.1111,-0.1064,-0.0959,-0.0887,-0.0914,-0.0903,-0.0699,-0.0632,-0.0528,-0.0641,-0.0491,-0.0807,-0.0892,-0.092,-0.0986,-0.0967,0,0,0,0,0]},{"header":{"parameterUnit":"m.s-1","parameterCategory":2,"la1":30.2991,"la2":30.254,"lo1":-89.0895,"lo2":-89.0444,"dy":0.0017,"dx":0.0017,"nx":28,"ny":28,"refTime":"2023-08-26T09:00:00:Z","depth":"2","parameterNumber":3,"parameterNumberName":"V-component_of_CURRENTS"},"data":[0,0,0,0,0,0,0,0,0,0,0,0,0,0,0,0,0,0,0,0,0,0,0,0,0,0,0,0,0,0,0,0,0,0,0,0,0,0,0,0,0,0,0,0,0,0,0,0,0,0,0,0,0,0,0,0,0,0,-0.0438,-0.0437,0,-0.0382,-0.0381,-0.0381,-0.0339,-0.0339,-0.0339,-0.0338,-0.0194,-0.019,-0.0187,0,0,0,0,0,0,0,0,0,0,0,0,0,-0.0486,-0.0485,-0.0438,-0.0437,-0.0436,-0.0382,-0.0381,-0.038,-0.0339,-0.0339,-0.0338,-0.0338,-0.0195,-0.0191,-0.0186,0,0,0,0,0,0,0,0,0,0,0,0,0,-0.0451,-0.0485,-0.0438,-0.0409,-0.0406,-0.0382,-0.0381,-0.038,-0.0339,-0.0339,-0.0338,-0.0338,-0.0196,-0.0191,-0.0186,-0.0164,0,0,-0.017,-0.0167,0,0,0,0,0,0,0,0,-0.0453,-0.0449,-0.0414,-0.0411,-0.0408,-0.0367,-0.0345,-0.0303,-0.034,-0.0365,-0.0338,-0.0338,-0.0244,-0.0235,-0.0226,-0.0157,-0.0151,-0.0169,-0.0166,-0.0164,-0.0162,0,0,0,0,0,0,0,-0.0456,-0.0451,-0.0415,-0.0414,-0.041,-0.0392,-0.0386,-0.0337,-0.0306,-0.0362,-0.0359,-0.0354,-0.0242,-0.0232,-0.0222,-0.0148,-0.0169,-0.0165,-0.0161,-0.0159,-0.0051,-0.0051,0,0,0,0,0,0,-0.0465,-0.0454,-0.0417,-0.0414,-0.043,-0.0391,-0.0385,-0.0381,-0.0308,-0.0298,-0.0354,-0.0352,-0.0241,-0.0229,-0.0217,-0.0174,-0.0164,-0.0159,-0.0156,-0.005,-0.0051,-0.0051,0,0,0,0,0,0,-0.0466,-0.0462,-0.0419,-0.0433,-0.0426,-0.0391,-0.0386,-0.038,-0.0369,-0.0303,-0.0291,-0.035,-0.024,-0.0224,-0.0182,-0.0168,-0.0156,-0.0152,-0.005,-0.005,-0.0051,-0.0095,0,0,0,0,0,0,-0.0468,-0.0463,-0.0467,-0.0433,-0.0425,-0.041,-0.0386,-0.0379,-0.0366,-0.0363,-0.0295,-0.0281,-0.0239,-0.0191,-0.0177,-0.0161,-0.0148,-0.005,-0.005,-0.0051,-0.0093,-0.0097,-0.01,0,0,0,0,0,-0.047,-0.0478,-0.0467,-0.0463,-0.0431,-0.0411,-0.0405,-0.0378,-0.0367,-0.0366,-0.0324,-0.0283,-0.0184,-0.0187,-0.017,-0.0153,-0.0049,-0.005,-0.0051,-0.0092,-0.0096,-0.01,0,0,0,0,0,0,-0.0503,-0.0474,-0.0461,-0.0461,-0.044,-0.0404,-0.0403,-0.0383,-0.0352,-0.0347,-0.0286,-0.0269,-0.0226,-0.019,-0.0195,-0.0126,-0.011,-0.0107,-0.0147,-0.015,-0.0154,-0.0164,-0.0143,0,0,0,0,0,-0.0513,-0.0511,-0.0478,-0.0479,-0.0471,-0.0438,-0.0428,-0.0409,-0.0375,-0.0362,-0.0316,-0.0266,-0.0217,-0.0187,-0.0143,-0.0103,-0.0067,-0.0083,-0.0087,-0.009,-0.0089,-0.0035,-0.0033,-0.0053,-0.0053,-0.0053,0,0,-0.0526,-0.051,-0.0509,-0.0486,-0.0468,-0.0457,-0.0431,-0.0419,-0.0404,-0.0349,-0.0319,-0.0276,-0.0212,-0.017,-0.0147,-0.0136,-0.0067,-0.0091,-0.0094,-0.0091,-0.0035,-0.0033,-0.0031,-0.0054,-0.0053,-0.0053,0,0,-0.0549,-0.0538,-0.0541,-0.0528,-0.0504,-0.048,-0.0478,-0.0444,-0.0424,-0.0393,-0.0347,-0.0302,-0.0234,-0.0184,-0.0149,-0.0145,-0.009,-0.0131,-0.0148,-0.0095,-0.0093,-0.009,-0.0048,-0.0041,-0.0129,-0.0129,-0.0129,0,-0.0566,-0.0564,-0.054,-0.0539,-0.053,-0.0491,-0.049,-0.0463,-0.042,-0.04,-0.039,-0.0291,-0.0238,-0.0172,-0.0173,-0.0149,-0.0119,-0.0136,-0.0099,-0.0096,-0.0092,-0.0049,-0.0041,-0.0132,-0.0131,-0.0131,-0.0131,0,-0.0588,-0.0587,-0.059,-0.0572,-0.0558,-0.0555,-0.0514,-0.0496,-0.0468,-0.0434,-0.0378,-0.0315,-0.0254,-0.0229,-0.0196,-0.0143,-0.0129,-0.0112,-0.0088,-0.0093,-0.0048,-0.0039,-0.0135,-0.0134,-0.0133,-0.0133,0,0,-0.0613,-0.0607,-0.0606,-0.0608,-0.0577,-0.0569,-0.0543,-0.0504,-0.0485,-0.0438,-0.0403,-0.0324,-0.0292,-0.0252,-0.0201,-0.0155,-0.0104,-0.013,-0.0126,-0.0088,0.0005,0.0026,0.0038,-0.0082,-0.0081,-0.008,0.0024,0,-0.0634,-0.0651,-0.0631,-0.0636,-0.064,-0.0601,-0.0579,-0.0539,-0.0498,-0.0456,-0.0382,-0.0334,-0.0298,-0.027,-0.0217,-0.0129,-0.0082,-0.0135,0.0004,0.0008,0.0027,0.0049,0.003,0.0122,0.0034,0.0035,0.0036,0,-0.0654,-0.0663,-0.0681,-0.0672,-0.0668,-0.0661,-0.0623,-0.06,-0.0527,-0.0493,-0.0431,-0.0376,-0.029,-0.027,-0.0123,-0.016,-0.0085,-0.0023,-0.0017,0.0026,0.0046,0.0114,0.0143,0.0052,0.0051,0.005,0.0049,0,-0.0687,-0.0692,-0.0711,-0.0711,-0.0693,-0.0689,-0.0672,-0.0615,-0.059,-0.052,-0.0493,-0.0388,-0.0329,-0.0227,-0.0098,-0.0109,0.0058,0.0064,0.0153,0.0155,0.018,0.0181,0.0161,0.0161,0.0161,0.016,0.016,0,-0.0716,-0.0729,-0.0734,-0.0747,-0.0761,-0.0732,-0.0725,-0.0692,-0.0634,-0.0597,-0.052,-0.0462,-0.0317,-0.0204,-0.0099,0.0061,0.0064,0.0159,0.019,0.0162,0.0161,0.013,0.0125,0.0164,0.0163,0.0163,0.0162,0,-0.0748,-0.0753,-0.0777,-0.0779,-0.0781,-0.0793,-0.0772,-0.0761,-0.0705,-0.0653,-0.0633,-0.0501,-0.035,-0.0206,-0.002,0.0068,0.0209,0.026,0.0212,0.0236,0.0268,0.0259,0.0373,0.0375,0.0376,0.0378,0.0379,0,-0.0765,-0.0785,-0.0811,-0.0832,-0.0837,-0.0848,-0.085,-0.0803,-0.0781,-0.0668,-0.0641,-0.0492,-0.0362,-0.0092,0.0086,0.0278,0.0265,0.0357,0.0337,0.0274,0.0293,0.0282,0.0272,0.0351,0.0352,0.0352,0.0353,0,-0.0796,-0.0809,-0.0832,-0.0878,-0.0899,-0.0914,-0.0909,-0.0894,-0.082,-0.0757,-0.063,-0.0517,-0.0256,-0.0031,0.02,0.0301,0.0323,0.0376,0.0346,0.0292,0.026,0.0276,0.0265,0.0358,0.0358,0.0357,0.0357,0.0357,-0.0815,-0.0845,-0.0879,-0.0919,-0.0949,-0.0962,-0.0958,-0.0925,-0.087,-0.0748,-0.0634,-0.0452,-0.0236,0.0102,0.0274,0.0412,0.0407,0.0434,0.043,0.0425,0.0397,0.0368,0.0481,0.0481,0.0481,0.0481,0.0481,0,-0.083,-0.0867,-0.0913,-0.096,-0.0994,-0.0996,-0.0982,-0.0947,-0.087,-0.074,-0.0601,-0.0352,-0.0107,0.01,0.0342,0.0489,0.0466,0.0494,0.044,0.0435,0.043,0.0398,0.0485,0.0485,0.0485,0.0486,0,0,-0.084,-0.0888,-0.0916,-0.0982,-0.1011,-0.1018,-0.1,-0.0935,-0.0837,-0.0678,-0.0542,-0.0372,-0.01,0.0066,0.0256,0.0382,0.0363,0.0382,0.0365,0.0274,0.0267,0.0383,0.0328,0,0,0,0,0]}],[{"header":{"parameterUnit":"m.s-1","parameterCategory":2,"la1":30.2991,"la2":30.254,"lo1":-89.0895,"lo2":-89.0444,"dy":0.0017,"dx":0.0017,"nx":28,"ny":28,"refTime":"2023-08-26T09:00:00:Z","depth":"4","parameterNumber":2,"parameterNumberName":"U-component_of_CURRENTS"},"data":[0,0,0,0,0,0,0,0,0,0,0,0,0,0,0,0,0,0,0,0,0,0,0,0,0,0,0,0,0,0,0,0,0,0,0,0,0,0,0,0,0,0,0,0,0,0,0,0,0,0,0,0,0,0,0,0,0,0,-0.1476,-0.1477,0,-0.1519,-0.1519,-0.1519,-0.1549,-0.1549,-0.155,-0.155,-0.1575,-0.1575,-0.1576,0,0,0,0,0,0,0,0,0,0,0,0,0,-0.1437,-0.1437,-0.1476,-0.1477,-0.1477,-0.1518,-0.1519,-0.1519,-0.1549,-0.1549,-0.155,-0.155,-0.1575,-0.1575,-0.1576,0,0,0,0,0,0,0,0,0,0,0,0,0,-0.1462,-0.1437,-0.1476,-0.1499,-0.1502,-0.1518,-0.1519,-0.1519,-0.1549,-0.1549,-0.155,-0.1551,-0.1575,-0.1575,-0.1576,-0.1564,0,0,-0.1577,-0.1577,0,0,0,0,0,0,0,0,-0.146,-0.1463,-0.1495,-0.1497,-0.15,-0.1531,-0.1515,-0.1534,-0.1548,-0.1528,-0.155,-0.1551,-0.156,-0.1562,-0.1565,-0.1566,-0.1567,-0.1577,-0.1577,-0.1577,-0.1577,0,0,0,0,0,0,0,-0.1458,-0.1461,-0.149,-0.1496,-0.1499,-0.1513,-0.1517,-0.1518,-0.1537,-0.153,-0.1533,-0.1541,-0.1561,-0.1564,-0.1566,-0.1567,-0.1577,-0.1577,-0.1577,-0.1578,-0.1599,-0.1599,0,0,0,0,0,0,-0.1456,-0.1459,-0.1489,-0.1492,-0.1484,-0.1513,-0.1518,-0.1519,-0.1538,-0.1542,-0.1541,-0.1543,-0.1563,-0.1565,-0.1567,-0.1607,-0.1577,-0.1578,-0.1578,-0.1599,-0.1599,-0.1599,0,0,0,0,0,0,-0.1455,-0.1458,-0.1487,-0.1479,-0.1484,-0.1513,-0.1514,-0.1519,-0.1554,-0.1547,-0.155,-0.1574,-0.1564,-0.1566,-0.1592,-0.1606,-0.1578,-0.1578,-0.1598,-0.1599,-0.1599,-0.1654,0,0,0,0,0,0,-0.1454,-0.1457,-0.1472,-0.1479,-0.1485,-0.1517,-0.1514,-0.152,-0.1557,-0.1561,-0.1576,-0.1577,-0.1565,-0.1591,-0.1592,-0.1606,-0.1578,-0.1598,-0.1598,-0.1599,-0.1652,-0.1657,-0.1661,0,0,0,0,0,-0.1452,-0.1467,-0.1472,-0.1477,-0.1499,-0.1518,-0.1523,-0.1544,-0.1558,-0.1577,-0.1587,-0.1578,-0.1595,-0.1592,-0.1593,-0.1608,-0.1597,-0.1598,-0.1599,-0.165,-0.1656,-0.1661,0,0,0,0,0,0,-0.1462,-0.1472,-0.1478,-0.1497,-0.1516,-0.1525,-0.1549,-0.1563,-0.1587,-0.1597,-0.1591,-0.1593,-0.1618,-0.1605,-0.1602,-0.1613,-0.1591,-0.1593,-0.163,-0.1635,-0.1639,-0.1623,-0.1579,0,0,0,0,0,-0.1469,-0.1482,-0.1494,-0.1513,-0.1524,-0.1543,-0.156,-0.1574,-0.1589,-0.1602,-0.1612,-0.1615,-0.1615,-0.1622,-0.162,-0.1634,-0.1608,-0.1639,-0.1644,-0.1648,-0.1633,-0.1622,-0.1624,-0.1602,-0.1602,-0.1602,0,0,-0.1478,-0.1487,-0.1495,-0.1517,-0.1533,-0.1546,-0.1555,-0.1588,-0.1602,-0.1599,-0.1632,-0.1638,-0.1623,-0.1636,-0.1645,-0.1632,-0.1641,-0.1649,-0.1652,-0.1635,-0.1623,-0.1625,-0.1627,-0.1603,-0.1602,-0.1602,0,0,-0.1486,-0.1511,-0.1517,-0.1536,-0.1565,-0.1574,-0.1592,-0.1616,-0.1635,-0.1661,-0.1659,-0.1676,-0.1685,-0.1673,-0.1666,-0.1692,-0.1667,-0.1697,-0.1705,-0.1695,-0.1697,-0.1698,-0.1671,-0.167,-0.1696,-0.1696,-0.1696,0,-0.1494,-0.1503,-0.1526,-0.1537,-0.1555,-0.1589,-0.1601,-0.1621,-0.1653,-0.1664,-0.1679,-0.1691,-0.1693,-0.1689,-0.1699,-0.1701,-0.1687,-0.1692,-0.1701,-0.1702,-0.1702,-0.1674,-0.1672,-0.1699,-0.1699,-0.1698,-0.1698,0,-0.1491,-0.1515,-0.1527,-0.1544,-0.1569,-0.1593,-0.1617,-0.1649,-0.1679,-0.169,-0.1716,-0.1721,-0.1722,-0.1731,-0.1724,-0.1726,-0.1713,-0.1713,-0.169,-0.1707,-0.1677,-0.1673,-0.1703,-0.1702,-0.1701,-0.17,0,0,-0.1458,-0.151,-0.1517,-0.1535,-0.1578,-0.1595,-0.1625,-0.1651,-0.1672,-0.1705,-0.1721,-0.1732,-0.1744,-0.1736,-0.1738,-0.1732,-0.1731,-0.1728,-0.1726,-0.1704,-0.17,-0.1582,-0.1566,-0.1743,-0.1743,-0.1742,-0.168,0,-0.1447,-0.1473,-0.15,-0.1535,-0.1552,-0.1595,-0.1619,-0.1652,-0.1684,-0.1712,-0.1722,-0.1741,-0.1743,-0.1756,-0.1751,-0.174,-0.1723,-0.1747,-0.1683,-0.168,-0.1575,-0.1558,-0.1741,-0.1677,-0.1676,-0.1676,-0.1675,0,-0.1422,-0.1449,-0.1478,-0.1534,-0.1546,-0.1572,-0.1622,-0.1647,-0.1687,-0.1712,-0.1731,-0.1746,-0.1747,-0.1753,-0.1722,-0.1741,-0.1718,-0.1705,-0.1702,-0.1563,-0.1553,-0.1654,-0.1668,-0.1668,-0.1669,-0.1669,-0.167,0,-0.138,-0.1432,-0.1459,-0.1479,-0.1542,-0.1567,-0.1603,-0.1649,-0.1668,-0.1715,-0.173,-0.1741,-0.1743,-0.1727,-0.1698,-0.1718,-0.1653,-0.1676,-0.1539,-0.1531,-0.1636,-0.1635,-0.1639,-0.1639,-0.1639,-0.1639,-0.164,0,-0.1345,-0.1373,-0.145,-0.1466,-0.1499,-0.1554,-0.1588,-0.1626,-0.167,-0.1676,-0.1728,-0.1718,-0.1739,-0.1709,-0.169,-0.1583,-0.164,-0.1518,-0.1499,-0.1661,-0.1663,-0.1633,-0.1633,-0.1637,-0.1638,-0.1638,-0.1638,0,-0.129,-0.1342,-0.1379,-0.1456,-0.148,-0.1507,-0.1573,-0.159,-0.1646,-0.1654,-0.1668,-0.1694,-0.1644,-0.1635,-0.1595,-0.1543,-0.1479,-0.1427,-0.1579,-0.1575,-0.1369,-0.1373,-0.1268,-0.1263,-0.1259,-0.1255,-0.1253,0,-0.126,-0.1275,-0.1361,-0.1381,-0.1419,-0.1469,-0.1494,-0.1565,-0.1576,-0.1615,-0.16,-0.1582,-0.1579,-0.1411,-0.1432,-0.1357,-0.1344,-0.1309,-0.1351,-0.1334,-0.1327,-0.1338,-0.1347,-0.1246,-0.1245,-0.1244,-0.1243,0,-0.1197,-0.1241,-0.1272,-0.1314,-0.1351,-0.1383,-0.1426,-0.1418,-0.1479,-0.1547,-0.1476,-0.1432,-0.1361,-0.1315,-0.1252,-0.1213,-0.1337,-0.1266,-0.1276,-0.1315,-0.1306,-0.1306,-0.132,-0.1228,-0.123,-0.1232,-0.1233,0,-0.1149,-0.1154,-0.1199,-0.1221,-0.127,-0.1271,-0.1308,-0.1303,-0.1316,-0.1364,-0.1332,-0.1313,-0.1337,-0.1237,-0.1188,-0.1125,-0.1118,-0.1099,-0.1117,-0.1133,-0.1117,-0.1088,-0.0903,0,0,0,0,0,-0.109,-0.1079,-0.1098,-0.1111,-0.1157,-0.1178,-0.1246,-0.1285,-0.1341,-0.1251,-0.1285,-0.1214,-0.1123,-0.1123,-0.1025,-0.113,-0.1129,-0.1014,-0.112,-0.1149,-0.1165,-0.1158,0,0,0,0,0,0,-0.1047,-0.1063,-0.1061,-0.1014,-0.0998,-0.1028,-0.1065,-0.111,-0.1069,-0.1131,-0.1081,-0.1133,-0.1059,-0.1136,-0.0991,-0.0989,-0.1031,-0.1015,-0.1012,-0.1139,-0.1154,-0.1168,-0.1166,0,0,0,0,0]},{"header":{"parameterUnit":"m.s-1","parameterCategory":2,"la1":30.2991,"la2":30.254,"lo1":-89.0895,"lo2":-89.0444,"dy":0.0017,"dx":0.0017,"nx":28,"ny":28,"refTime":"2023-08-26T09:00:00:Z","depth":"4","parameterNumber":3,"parameterNumberName":"V-component_of_CURRENTS"},"data":[0,0,0,0,0,0,0,0,0,0,0,0,0,0,0,0,0,0,0,0,0,0,0,0,0,0,0,0,0,0,0,0,0,0,0,0,0,0,0,0,0,0,0,0,0,0,0,0,0,0,0,0,0,0,0,0,0,0,-0.0321,-0.0321,0,-0.0293,-0.0292,-0.0292,-0.0272,-0.0272,-0.0272,-0.0272,-0.021,-0.0208,-0.0206,0,0,0,0,0,0,0,0,0,0,0,0,0,-0.0339,-0.0339,-0.0321,-0.0321,-0.0321,-0.0293,-0.0292,-0.0292,-0.0272,-0.0272,-0.0272,-0.0272,-0.021,-0.0208,-0.0206,0,0,0,0,0,0,0,0,0,0,0,0,0,-0.0323,-0.0339,-0.0321,-0.0308,-0.0307,-0.0293,-0.0292,-0.0292,-0.0272,-0.0272,-0.0272,-0.0272,-0.0211,-0.0208,-0.0206,-0.0194,0,0,-0.0199,-0.0198,0,0,0,0,0,0,0,0,-0.0324,-0.0322,-0.031,-0.0309,-0.0307,-0.0286,-0.0276,-0.0258,-0.0272,-0.0285,-0.0272,-0.0272,-0.0233,-0.0228,-0.0223,-0.0191,-0.0189,-0.0199,-0.0197,-0.0196,-0.0196,0,0,0,0,0,0,0,-0.0325,-0.0323,-0.0309,-0.031,-0.0308,-0.0297,-0.0294,-0.0272,-0.0259,-0.0284,-0.0282,-0.028,-0.0231,-0.0225,-0.0221,-0.0188,-0.0199,-0.0197,-0.0195,-0.0194,-0.0144,-0.0144,0,0,0,0,0,0,-0.0331,-0.0324,-0.031,-0.0309,-0.0316,-0.0297,-0.0294,-0.0293,-0.026,-0.0255,-0.028,-0.0279,-0.023,-0.0224,-0.0219,-0.0195,-0.0196,-0.0194,-0.0193,-0.0144,-0.0144,-0.0144,0,0,0,0,0,0,-0.0331,-0.033,-0.0312,-0.0316,-0.0313,-0.0297,-0.0295,-0.0292,-0.029,-0.0258,-0.0252,-0.0282,-0.0229,-0.0222,-0.0203,-0.0193,-0.0193,-0.0191,-0.0144,-0.0144,-0.0144,-0.0153,0,0,0,0,0,0,-0.0332,-0.033,-0.0337,-0.0317,-0.0313,-0.031,-0.0296,-0.0292,-0.0289,-0.0287,-0.0257,-0.0251,-0.0229,-0.0207,-0.0201,-0.019,-0.0189,-0.0143,-0.0144,-0.0144,-0.0152,-0.0153,-0.0154,0,0,0,0,0,-0.0333,-0.0342,-0.0337,-0.0336,-0.0321,-0.031,-0.0308,-0.0295,-0.0289,-0.0291,-0.0269,-0.0252,-0.0203,-0.0205,-0.0198,-0.0186,-0.0143,-0.0144,-0.0144,-0.0152,-0.0153,-0.0154,0,0,0,0,0,0,-0.0356,-0.034,-0.0335,-0.034,-0.0329,-0.0307,-0.0311,-0.03,-0.0285,-0.0284,-0.0252,-0.0245,-0.0222,-0.0208,-0.0211,-0.0174,-0.0171,-0.0169,-0.0179,-0.018,-0.0181,-0.0191,-0.0187,0,0,0,0,0,-0.0364,-0.0366,-0.0348,-0.0354,-0.035,-0.0332,-0.0328,-0.0318,-0.03,-0.0294,-0.0272,-0.0247,-0.0217,-0.0203,-0.0181,-0.0162,-0.0139,-0.0151,-0.0151,-0.0152,-0.0156,-0.0109,-0.0106,-0.0144,-0.0144,-0.0144,0,0,-0.0376,-0.0367,-0.037,-0.0359,-0.0351,-0.0346,-0.0329,-0.0327,-0.0318,-0.0288,-0.0276,-0.0249,-0.0213,-0.0189,-0.0178,-0.0176,-0.013,-0.0152,-0.0153,-0.0157,-0.0109,-0.0105,-0.0101,-0.0144,-0.0144,-0.0144,0,0,-0.0395,-0.0393,-0.0398,-0.0392,-0.0381,-0.0366,-0.0366,-0.0348,-0.0337,-0.0322,-0.0291,-0.0261,-0.0231,-0.0193,-0.0171,-0.0164,-0.0135,-0.0161,-0.0169,-0.0123,-0.0119,-0.0115,-0.0084,-0.0077,-0.0161,-0.0161,-0.0161,0,-0.041,-0.0412,-0.0399,-0.0401,-0.0398,-0.0375,-0.0377,-0.0361,-0.0338,-0.0326,-0.0324,-0.026,-0.0229,-0.0178,-0.0175,-0.0163,-0.0142,-0.0166,-0.0123,-0.0119,-0.0115,-0.0083,-0.0076,-0.0161,-0.0161,-0.0161,-0.0161,0,-0.0428,-0.0432,-0.0437,-0.0429,-0.0423,-0.0424,-0.0398,-0.039,-0.0374,-0.0352,-0.0314,-0.027,-0.0231,-0.0212,-0.019,-0.0143,-0.0139,-0.0127,-0.0119,-0.0111,-0.0079,-0.0071,-0.0162,-0.0161,-0.0161,-0.0161,0,0,-0.0447,-0.0449,-0.0451,-0.0455,-0.0439,-0.0436,-0.0421,-0.0395,-0.0385,-0.0355,-0.0332,-0.0271,-0.0249,-0.0223,-0.0184,-0.0144,-0.0092,-0.013,-0.0127,-0.0096,-0.0001,-0.0013,-0.0005,-0.0072,-0.0071,-0.007,0.001,0,-0.0463,-0.0481,-0.0469,-0.048,-0.0485,-0.0462,-0.045,-0.0424,-0.0398,-0.0373,-0.0313,-0.0281,-0.0251,-0.0232,-0.0183,-0.0115,-0.0072,-0.0116,-0.0016,-0.0013,-0.0022,0.0004,-0.0066,0.0016,0.0018,0.0019,0.002,0,-0.0476,-0.0487,-0.0507,-0.0507,-0.0507,-0.0509,-0.0489,-0.0476,-0.0426,-0.0404,-0.0357,-0.0315,-0.0244,-0.0227,-0.0105,-0.0136,-0.0073,-0.0022,-0.0018,-0.0021,-0.001,0.0007,0.0035,0.0033,0.0032,0.0031,0.003,0,-0.0495,-0.0508,-0.0528,-0.0531,-0.0528,-0.0532,-0.0526,-0.0491,-0.0477,-0.0428,-0.0412,-0.0325,-0.0282,-0.0192,-0.0089,-0.0095,0.0038,0.0048,0.0099,0.0098,0.0088,0.0084,0.0134,0.0134,0.0134,0.0134,0.0134,0,-0.0508,-0.0524,-0.0547,-0.0559,-0.0581,-0.0567,-0.0575,-0.0554,-0.052,-0.0498,-0.0436,-0.0394,-0.0272,-0.0183,-0.0092,0.0025,0.0041,0.0101,0.0123,0.0081,0.0075,0.0094,0.0088,0.0137,0.0136,0.0136,0.0135,0,-0.052,-0.0535,-0.0564,-0.0584,-0.0594,-0.0613,-0.0619,-0.0617,-0.0583,-0.0553,-0.0539,-0.0436,-0.0318,-0.02,-0.0045,0.0019,0.0132,0.0169,0.0108,0.0124,0.0161,0.0154,0.0235,0.0235,0.0236,0.0236,0.0236,0,-0.0525,-0.0545,-0.0593,-0.0621,-0.0636,-0.0663,-0.0676,-0.0654,-0.0643,-0.0571,-0.055,-0.0441,-0.0361,-0.015,-0.0032,0.0135,0.0157,0.0205,0.0191,0.0161,0.0174,0.0166,0.0158,0.0237,0.0237,0.0237,0.0237,0,-0.0536,-0.0562,-0.059,-0.065,-0.0685,-0.0713,-0.0727,-0.0716,-0.0673,-0.065,-0.054,-0.0428,-0.0295,-0.014,-0.0016,0.0105,0.0167,0.0209,0.0209,0.0197,0.0164,0.0174,0.0167,0.0238,0.0238,0.0238,0.0238,0,-0.0547,-0.0576,-0.0623,-0.067,-0.0722,-0.0743,-0.0746,-0.0714,-0.0691,-0.06,-0.0562,-0.0416,-0.0326,-0.0154,-0.0035,0.0074,0.0103,0.0131,0.0136,0.0136,0.0078,0.002,0.0075,0,0,0,0,0,-0.0549,-0.0585,-0.0636,-0.069,-0.0742,-0.0763,-0.0769,-0.0757,-0.0713,-0.0637,-0.0593,-0.0464,-0.0269,-0.0182,-0.0071,-0.0044,0.0105,0.0087,0.0136,0.0244,0.0243,0.019,0,0,0,0,0,0,-0.0554,-0.0605,-0.0633,-0.0697,-0.0733,-0.0777,-0.0776,-0.0745,-0.069,-0.0631,-0.0522,-0.0455,-0.0266,-0.0335,-0.0075,-0.0042,0.0001,0.018,0.0182,0.0245,0.0244,0.0243,0.0188,0,0,0,0,0]}]]